TimeEST,TemperatureF,Dew PointF,Humidity,Sea Level PressureIn,VisibilityMPH,Wind Direction,Wind SpeedMPH,Gust SpeedMPH,PrecipitationIn,Events,Conditions,WindDirDegrees,DateUTC
12:55 AM,8.8,-4.2,56,30.26,10.0,West,12.7,-,N/A,,Clear,260,2013-01-22 05:55:00
1:47 AM,8.6,-4.0,57,30.27,10.0,West,16.1,21.9,N/A,,Mostly Cloudy,260,2013-01-22 06:47:00
1:50 AM,8.6,-2.2,62,30.27,10.0,West,16.1,23.0,N/A,,Mostly Cloudy,270,2013-01-22 06:50:00
1:55 AM,9.0,-2.9,59,30.27,10.0,West,17.3,23.0,N/A,,Mostly Cloudy,260,2013-01-22 06:55:00
2:55 AM,8.1,-4.9,56,30.28,10.0,West,11.5,-,N/A,,Clear,270,2013-01-22 07:55:00
3:55 AM,7.3,-4.0,60,30.29,10.0,West,10.4,-,N/A,,Clear,260,2013-01-22 08:55:00
4:55 AM,6.6,-4.5,60,30.30,10.0,West,10.4,-,N/A,,Clear,260,2013-01-22 09:55:00
5:55 AM,6.1,-4.9,61,30.31,10.0,West,12.7,-,N/A,,Clear,270,2013-01-22 10:55:00
6:55 AM,5.5,-4.5,63,30.34,10.0,West,9.2,-,N/A,,Partly Cloudy,270,2013-01-22 11:55:00
7:55 AM,5.0,-4.9,64,30.35,10.0,West,8.1,-,N/A,,Partly Cloudy,260,2013-01-22 12:55:00
8:55 AM,6.1,-3.5,65,30.38,10.0,WSW,10.4,-,N/A,,Partly Cloudy,250,2013-01-22 13:55:00
9:55 AM,7.3,-4.0,60,30.40,10.0,WSW,10.4,-,N/A,,Scattered Clouds,240,2013-01-22 14:55:00
9:57 AM,6.8,-4.0,61,30.40,10.0,WSW,12.7,-,N/A,,Mostly Cloudy,240,2013-01-22 14:57:00
10:01 AM,6.8,-4.0,61,30.40,10.0,West,10.4,-,N/A,,Scattered Clouds,260,2013-01-22 15:01:00
10:55 AM,8.8,-4.4,55,30.41,10.0,West,11.5,-,N/A,,Scattered Clouds,270,2013-01-22 15:55:00
11:55 AM,11.8,-4.5,48,30.40,10.0,West,11.5,-,N/A,,Partly Cloudy,270,2013-01-22 16:55:00
12:55 PM,14.2,-4.5,43,30.37,10.0,West,12.7,18.4,N/A,,Scattered Clouds,270,2013-01-22 17:55:00
1:55 PM,14.9,-5.4,40,30.34,10.0,West,11.5,-,N/A,,Scattered Clouds,270,2013-01-22 18:55:00
2:55 PM,16.3,-4.0,41,30.34,10.0,SW,15.0,23.0,N/A,,Mostly Cloudy,230,2013-01-22 19:55:00
3:55 PM,15.3,-4.0,42,30.35,10.0,West,12.7,-,N/A,,Scattered Clouds,270,2013-01-22 20:55:00
4:55 PM,14.7,-6.5,39,30.35,10.0,West,17.3,-,N/A,,Partly Cloudy,260,2013-01-22 21:55:00
5:55 PM,13.1,-4.4,46,30.35,10.0,WSW,10.4,-,N/A,,Scattered Clouds,250,2013-01-22 22:55:00
6:55 PM,12.9,-4.0,47,30.36,10.0,West,8.1,-,N/A,,Scattered Clouds,270,2013-01-22 23:55:00
7:55 PM,13.3,-3.5,47,30.36,10.0,West,6.9,-,N/A,,Mostly Cloudy,270,2013-01-23 00:55:00
8:55 PM,13.6,-3.3,47,30.35,10.0,West,8.1,-,N/A,,Partly Cloudy,270,2013-01-23 01:55:00
9:55 PM,13.1,-2.4,50,30.36,10.0,West,5.8,-,N/A,,Mostly Cloudy,270,2013-01-23 02:55:00
10:55 PM,12.9,-1.8,52,30.36,10.0,West,5.8,-,N/A,,Overcast,280,2013-01-23 03:55:00
11:55 PM,12.0,-1.7,54,30.37,10.0,West,4.6,-,N/A,,Mostly Cloudy,270,2013-01-23 04:55:00